Iowa City, IA

7:12 PM CST on December 07, 2019 (GMT -0600)
Iowa City Municipal

Weather History for KIOW - October, 2019

Change the Weather History Date:

Sunday, October 6, 2019

  Actual Average Record
Temperature  
Mean Temperature 53 °F 56 °F  
Max Temperature 62 °F 67 °F 93 °F (1963)
Min Temperature 43 °F 44 °F 19 °F (1952)
Degree Days  
Heating Degree Days 12 10  
Month to date heating degree days 44 55  
Since 1 July heating degree days 51 167  
Cooling Degree Days 0 1  
Month to date cooling degree days 18 6  
Year to date cooling degree days 1175 908  
Growing Degree Days 2 (Base 50)    
Moisture  
Dew Point 46 °F    
Average Humidity 77    
Maximum Humidity 93    
Minimum Humidity 60    
Precipitation  
Precipitation 0.00 in 0.07 in 1.72 in (1959)
Month to date precipitation 1.41 0.49  
Year to date precipitation 38.38 30.03  
Sea Level Pressure  
Sea Level Pressure 30.11 in    
Wind  
Wind Speed 3 mph (WSW)    
Max Wind Speed 9 mph    
Max Gust Speed 13 mph    
Visibility 9 miles    
Events      
T = Trace of Precipitation, MM = Missing Value Source: NWS Daily Summary

Daily Weather History Graph

Daily Weather History Graph

Search for Another Location

Airport or City:

Astronomy

Oct. 06, 2019 Rise Set
Actual Time 7:08 AM CDT 6:39 PM CDT
Civil Twilight 6:40 AM CDT 7:07 PM CDT
Nautical Twilight 6:08 AM CDT 7:39 PM CDT
Astronomical Twilight 5:35 AM CDT 8:11 PM CDT
Moon 3:24 PM CDT (10/6) 12:00 AM CDT (10/6)
Length of Visible Light 12h 27m
Length of Day
11h 31m
First Quarter, 60% of the Moon is Illuminated
Oct 6
First Quarter
Oct 13
Full
Oct 21
Last Quarter
Oct 27
New
Nov 4
First Quarter

Hourly Weather History & Observations

Time (CDT) Temp. Windchill Dew Point Humidity Pressure Visibility Wind Dir Wind Speed Gust Speed Precip Events Conditions
12:28 AM 50.0 °F - 46.9 °F 89% 30.00 in 2.5 mi Calm Calm - N/A   Clear
12:36 AM 51.1 °F - 48.0 °F 89% 30.00 in 10.0 mi SW 3.5 mph - N/A   Clear
12:52 AM 48.0 °F - 46.0 °F 93% 30.01 in 10.0 mi Calm Calm - N/A   Clear
1:52 AM 46.9 °F - 45.0 °F 93% 30.02 in 10.0 mi West 3.5 mph - N/A   Clear
2:52 AM 46.9 °F - 45.0 °F 93% 30.04 in 2.5 mi Calm Calm - N/A   Clear
3:02 AM 46.0 °F 44.8 °F 44.1 °F 93% 30.03 in 10.0 mi West 3.5 mph - N/A   Clear
3:52 AM 46.0 °F - 44.1 °F 93% 30.04 in 10.0 mi Calm Calm - N/A   Clear
4:22 AM 46.0 °F - 43.0 °F 89% 30.04 in 2.5 mi Calm Calm - N/A   Clear
4:29 AM 45.0 °F - 43.0 °F 93% 30.04 in 9.0 mi Calm Calm - N/A   Clear
4:52 AM 46.0 °F 44.8 °F 43.0 °F 89% 30.06 in 10.0 mi SW 3.5 mph - N/A   Clear
5:52 AM 44.1 °F - 42.1 °F 93% 30.08 in 10.0 mi Calm Calm - N/A   Clear
6:52 AM 46.0 °F - 43.0 °F 89% 30.09 in 10.0 mi Calm Calm - N/A   Clear
7:52 AM 48.0 °F - 45.0 °F 89% 30.14 in 10.0 mi West 3.5 mph - N/A   Clear
8:52 AM 52.0 °F - 46.9 °F 83% 30.15 in 10.0 mi Calm Calm - N/A   Clear
9:52 AM 54.0 °F - 46.9 °F 77% 30.17 in 10.0 mi WSW 3.5 mph - N/A   Clear
10:52 AM 55.0 °F - 48.0 °F 77% 30.17 in 10.0 mi West 4.6 mph - N/A   Clear
11:52 AM 57.0 °F - 48.9 °F 74% 30.18 in 10.0 mi West 5.8 mph - N/A   Mostly Cloudy
12:52 PM 59.0 °F - 48.9 °F 69% 30.18 in 10.0 mi West 6.9 mph - N/A   Mostly Cloudy
1:52 PM 59.0 °F - 48.9 °F 69% 30.15 in 10.0 mi West 8.1 mph - N/A   Mostly Cloudy
2:52 PM 61.0 °F - 48.9 °F 64% 30.15 in 10.0 mi WSW 8.1 mph - N/A   Clear
3:52 PM 61.0 °F - 48.9 °F 64% 30.14 in 10.0 mi SW 6.9 mph - N/A   Clear
4:52 PM 61.0 °F - 50.0 °F 67% 30.14 in 10.0 mi WSW 4.6 mph - N/A   Clear
5:52 PM 60.1 °F - 46.9 °F 62% 30.14 in 10.0 mi WSW 6.9 mph - N/A   Clear
6:52 PM 57.0 °F - 46.0 °F 67% 30.14 in 10.0 mi WSW 3.5 mph - N/A   Clear
7:52 PM 55.0 °F - 46.0 °F 72% 30.15 in 10.0 mi Calm Calm - N/A   Clear
8:52 PM 53.1 °F - 45.0 °F 74% 30.17 in 10.0 mi Calm Calm - N/A   Clear
9:52 PM 52.0 °F - 44.1 °F 74% 30.18 in 10.0 mi Calm Calm - N/A   Clear
10:52 PM 51.1 °F - 44.1 °F 77% 30.19 in 10.0 mi West 4.6 mph - N/A   Clear
11:52 PM 46.9 °F - 42.1 °F 83% 30.20 in 10.0 mi West 4.6 mph - N/A   Clear